SCP
0 -0 -0 -0 -0 -0 0 0 -0 0 -0 -0 0 -0 -0 0 0 0 1 3 4 6 6 3 3 5 3 2 0 0 0 0 0 0 0 0 0 0 0 0 0 0 0 0
-0 -0 0 -0 -0 -0 -0 -0 -0 -0 0 -0 -0 -0 -0 -0 0 0 2 2 3 2 3 3 1 0 0 0 0 0 0 0 0 0 0 0 0 0 0 0 0 0 0 0
-0 -0 -0 -0 -0 -0 -0 -0 -0 0 0 0 -0 -0 -0 0 0 0 0 0 1 1 1 0 0 0 0 0 0 0 0 0 0 0 0 0 0 0 0 0 0 0 0 0
-0 -0 0 0 -0 -0 -0 0 -0 0 -0 -0 -0 -0 -0 0 0 0 0 0 0 0 0 0 0 0 0 0 0 0 0 0 0 0 0 0 0 0 0 0 0 0 0 0
-0 0 -0 0 -0 -0 0 0 0 0 -0 -0 -0 -0 -0 -0 -0 0 0 0 0 0 0 0 0 0 0 0 0 0 0 0 0 0 0 0 0 0 0 0 0 0 0 0
0 0 0 0 -0 -0 0 0 -0 0 -0 -0 -0 -0 0 0 0 -0 -0 -0 0 0 0 0 0 0 0 0 0 0 0 0 0 0 0 0 0 0 0 0 0 0 0 0
0 0 0 -0 -0 -0 0 0 0 0 0 0 -0 -0 -0 -0 -0 -0 -0 -0 -0 -0 0 0 0 0 0 0 0 0 0 0 0 0 0 0 0 0 0 0 0 0 0 0
0 0 0 -0 -0 0 0 -0 0 0 0 -0 -0 -0 -0 -0 -0 -0 -0 -0 -0 0 -0 0 0 0 0 0 0 0 0 0 0 0 0 0 0 0 0 0 0 0 0 0
0 0 0 0 -0 -0 -0 -0 0 -0 -0 -0 -0 -0 -0 -0 -0 -0 -0 -0 0 -0 0 0 0 0 0 0 0 0 0 0 0 0 0 0 0 0 0 0 0 0 0 0
0 0 0 -0 -0 -0 -0 -0 -0 -0 -0 -0 -0 -0 -0 -0 -0 -0 -0 -0 -0 -0 -0 -0 0 0 0 0 0 0 0 0 0 0 0 0 0 0 0 0 0 0 0 0
0 0 0 -0 -0 -0 -0 0 -0 0 -0 -0 -0 -0 -0 -0 -0 -0 -0 0 0 0 0 0 0 0 0 0 0 0 0 0 0 0 0 0 0 0 0 0 0 0 0 0
0 -0 0 -0 -0 -0 -0 -0 -0 -0 -0 -0 -0 -0 -0 -0 -0 -0 -0 0 0 0 0 0 0 0 0 0 0 0 0 0 0 0 0 0 0 0 0 0 0 0 0 0
0 -0 -0 -0 -0 -0 -0 -0 0 0 -0 -0 -0 -0 -0 -0 -0 -0 -0 0 0 0 0 0 0 0 0 0 0 0 0 0 0 0 0 0 0 0 0 0 0 0 0 0
0 0 -0 -0 0 -0 -0 -0 -0 0 -0 -0 -0 -0 -0 -0 -0 -0 -0 0 0 0 0 -0 0 0 0 0 0 0 0 0 0 0 0 0 0 0 0 0 0 0 0 0
0 -0 -0 -0 -0 0 -0 0 0 -0 0 -0 -0 -0 -0 -0 -0 -0 0 0 0 0 0 0 0 0 0 0 -0 0 0 0 0 0 0 0 0 0 0 0 0 0 0 -0
-0 0 0 -0 -0 0 0 -0 0 -0 -0 -0 -0 -0 -0 -0 -0 -0 -0 0 0 0 0 0 0 0 0 0 0 0 0 0 0 0 0 0 0 0 0 0 0 0 0 -0
0 0 0 0 0 0 0 0 0 0 0 -0 -0 -0 -0 0 0 0 0 0 0 0 0 0 0 0 0 0 0 0 0 0 0 0 0 0 0 0 0 0 0 0 0 0
0 0 0 -0 -0 -0 0 -0 0 -0 0 0 0 0 0 0 0 0 0 0 0 0 0 0 0 0 0 0 0 0 0 0 0 0 0 0 0 0 0 0 0 0 0 0
-0 -0 -0 -0 -0 -0 -0 -0 0 -0 -0 -0 -0 -0 -0 -0 -0 -0 0 0 -0 0 0 0 0 0 0 0 0 0 0 0 0 0 0 0 0 0 0 0 0 0 0 0
-0 -0 -0 -0 -0 -0 -0 -0 -0 -0 0 0 0 0 0 0 0 0 0 0 0 0 0 0 0 0 0 0 0 0 0 0 0 0 0 0 0 0 0 0 0 0 0 0
-0 0 0 0 0 0 -0 -0 0 0 0 0 0 0 0 0 0 0 0 0 0 0 0 0 0 0 0 0 0 0 0 0 0 0 0 0 0 0 0 0 0 0 0 0
0 0 0 0 0 -0 -0 -0 0 0 0 0 0 0 0 0 0 0 0 0 0 0 0 0 0 0 0 0 0 0 0 0 0 0 0 0 0 0 0 0 0 0 0 0
0 0 0 0 0 -0 0 0 0 0 0 0 0 0 0 0 0 0 0 0 0 0 0 0 0 0 0 0 0 0 0 0 0 0 0 0 0 0 0 0 0 0 0 0
0 0 0 0 0 0 0 0 0 0 0 0 0 0 0 0 0 0 0 0 0 0 0 0 0 0 0 0 0 0 0 0 0 0 0 0 0 0 0 0 0 0 0 0
0 0 0 0 0 -0 -0 0 0 0 0 0 0 0 0 0 0 0 0 0 0 0 0 0 0 0 0 0 0 0 0 0 0 0 0 0 0 0 0 0 0 0 0 0
0 0 0 0 0 0 0 0 0 0 0 0 0 0 0 0 0 0 0 0 0 0 0 0 0 0 0 0 0 0 0 0 0 0 0 0 0 0 0 0 0 0 0 0
0 0 0 0 0 0 0 0 0 0 0 0 0 0 0 0 0 0 0 0 0 0 0 0 0 0 0 0 0 0 0 0 0 0 0 0 0 0 0 0 0 0 0 0
Wind_Speed_500mb
10 23 31 34 35 30 20 24 14 13 25 16 7 9 9 42 46 57 44 37 66 76 80 81 87 90 88 100 100 93 84 83 78 77 72 66 67 60 53 44 36 29 26 18
12 26 17 19 27 34 32 34 28 24 32 11 11 3 11 15 25 64 35 24 49 68 83 93 96 93 103 109 104 96 90 84 87 81 71 66 59 51 45 37 30 24 17 14
11 17 27 10 1 26 21 28 38 18 18 8 8 6 4 22 28 57 59 49 54 64 79 75 92 104 111 108 101 97 96 94 84 74 68 60 53 44 35 29 22 16 11 4
11 13 6 11 26 28 29 18 19 11 11 18 15 28 40 39 60 62 58 70 74 76 70 70 88 104 104 104 102 99 95 87 77 68 61 51 41 34 28 22 16 11 7 5
5 4 16 11 18 20 17 11 18 16 23 27 44 52 36 51 68 75 80 73 77 81 78 73 92 98 108 105 101 94 86 78 67 61 52 41 33 27 23 17 16 13 12 11
2 5 7 8 43 54 25 1 29 15 24 26 29 18 6 38 65 76 78 90 92 91 91 93 96 92 106 100 93 85 73 65 53 45 37 31 25 23 20 15 14 15 16 14
6 7 10 23 50 44 3 8 39 27 19 23 19 25 36 59 66 72 79 84 85 82 78 82 90 88 99 90 81 70 61 52 42 33 29 25 23 21 19 19 21 20 16 17
4 4 8 44 31 9 12 46 28 12 56 60 62 55 64 68 69 70 76 77 81 83 84 82 73 65 80 75 62 54 50 45 39 32 26 23 21 25 25 25 22 20 16 14
6 4 22 33 24 39 41 44 9 61 61 71 68 64 70 69 70 71 77 80 79 79 73 64 63 59 64 56 49 46 43 39 32 28 26 28 33 37 34 28 23 21 13 12
4 10 19 38 42 45 36 42 53 72 71 72 72 72 72 73 71 74 80 81 77 80 77 71 59 55 53 44 40 35 33 30 26 24 30 33 31 29 27 27 24 20 12 12
5 11 3 43 45 46 48 51 63 63 75 76 80 67 74 72 71 74 71 64 61 58 62 57 48 44 34 29 24 25 24 22 22 24 26 31 32 31 26 26 20 12 11 8
10 28 17 32 46 51 71 61 61 70 62 66 78 73 74 69 66 63 57 53 52 50 48 43 34 30 24 18 13 15 21 23 21 23 26 23 23 32 31 26 22 19 17 13
16 40 50 55 61 70 75 76 76 73 77 79 73 75 70 65 56 56 51 46 41 36 32 27 26 24 21 14 7 7 13 19 23 22 28 29 27 23 28 29 28 25 21 18
23 24 51 56 56 63 75 80 82 81 79 79 72 65 60 56 51 45 41 34 23 15 12 11 11 15 13 10 12 10 10 17 18 30 27 24 22 26 27 31 36 37 31 30
17 29 36 34 47 59 60 63 69 65 60 62 54 50 47 50 45 39 31 25 18 6 4 2 8 11 12 9 17 21 23 27 26 26 25 24 24 26 29 33 36 36 38 39
27 39 41 49 50 47 46 49 52 46 41 37 36 34 33 33 31 27 22 15 11 11 9 6 4 3 5 6 23 36 33 32 27 23 24 23 22 23 25 31 34 31 30 31
43 35 38 39 35 35 36 33 33 31 27 27 26 19 15 14 15 16 15 15 15 13 12 11 11 8 7 13 31 30 29 28 27 20 19 17 18 21 23 21 31 29 31 27
32 31 27 25 22 21 21 19 17 13 12 10 4 4 10 15 16 16 17 20 21 21 22 22 21 17 15 21 30 33 31 29 31 28 23 21 24 38 33 37 39 33 33 28
33 31 22 16 13 14 15 16 15 14 12 8 6 7 9 13 17 20 21 20 20 19 20 20 23 23 26 31 33 40 40 40 34 29 26 32 34 36 36 36 34 27 21 19
25 19 15 14 11 13 19 20 22 19 15 14 13 10 10 11 13 11 12 13 14 10 11 11 16 23 37 38 39 47 45 40 37 37 35 33 28 32 35 28 30 23 16 17
23 17 10 7 11 17 22 22 16 12 15 15 13 12 13 12 13 12 4 2 8 6 13 12 13 29 39 41 45 49 43 36 35 34 35 37 44 43 44 40 29 20 17 19
22 13 5 3 10 18 25 19 18 19 21 18 13 12 13 12 11 9 6 6 7 8 10 13 25 31 38 42 41 45 39 38 38 38 39 47 45 43 38 31 25 22 17 14
17 5 5 10 15 18 24 15 14 16 22 24 16 13 12 13 8 4 8 5 7 8 13 21 25 32 35 36 39 37 37 37 41 43 42 39 39 35 30 28 23 20 18 16
9 5 1 6 6 6 13 4 6 14 22 19 11 10 10 10 6 1 5 7 15 12 12 16 21 25 32 42 45 45 41 45 46 44 42 35 35 30 27 23 20 19 18 16
4 3 2 4 4 3 1 3 4 7 17 8 5 4 5 8 10 13 14 12 10 9 12 17 19 27 33 41 43 45 43 45 46 40 35 35 31 26 21 19 16 15 14 14
6 2 4 10 9 5 4 5 7 2 13 6 7 9 10 11 10 8 6 8 7 10 18 24 27 34 41 47 49 48 47 45 38 33 35 31 26 20 17 17 15 14 13 13
15 14 8 5 5 6 8 11 9 4 7 6 4 8 10 11 11 12 15 17 15 17 20 23 28 30 31 31 32 34 33 31 27 26 25 24 23 21 20 17 13 14 14 12
Wind_Direction_500mb
263 269 269 270 273 268 221 233 246 238 229 261 227 268 343 333 313 288 268 129 130 129 133 138 141 150 153 158 164 165 165 166 166 164 165 170 163 166 171 173 172 181 196 206
268 271 272 276 275 270 242 230 241 250 275 216 198 192 60 352 258 258 107 88 114 126 126 136 144 145 144 149 153 158 160 160 157 156 159 161 166 165 169 168 174 187 205 238
273 316 306 293 84 312 291 219 216 211 228 134 224 62 170 140 80 61 64 77 99 113 122 130 139 142 147 149 151 152 152 150 151 154 155 157 156 161 166 174 182 198 216 251
283 327 328 1 26 329 316 212 192 244 98 105 85 61 59 97 94 86 90 84 97 106 116 124 128 139 139 141 143 144 145 146 149 151 150 151 156 165 172 174 176 168 140 79
273 291 283 303 22 344 342 327 301 120 114 113 95 74 43 84 102 106 102 107 109 117 118 114 121 129 137 136 139 139 140 140 141 146 148 153 160 163 158 156 147 131 107 100
264 306 305 354 332 326 305 68 19 32 132 134 122 89 54 78 93 104 109 116 116 124 131 129 122 131 134 132 133 132 133 135 137 141 148 153 153 151 145 142 135 121 123 119
225 242 270 359 324 316 53 314 326 330 139 90 84 98 97 101 102 108 112 119 124 123 129 136 132 126 126 127 125 129 133 134 137 140 144 147 149 150 151 151 145 136 133 120
312 307 316 344 338 40 328 302 295 100 109 104 104 103 100 99 106 115 112 119 120 117 115 121 129 124 113 115 122 129 131 131 131 133 139 146 154 149 148 146 149 145 139 118
25 358 307 327 316 312 310 275 141 115 122 121 115 106 101 98 101 107 114 116 120 123 120 119 121 115 109 112 117 120 122 123 129 133 137 148 154 150 147 146 144 142 141 99
298 358 330 359 3 6 10 123 129 131 127 122 114 115 112 114 109 103 111 116 117 116 113 109 108 103 100 102 105 114 119 122 126 137 144 148 152 151 150 155 165 160 132 102
303 340 296 21 22 32 60 112 124 125 133 125 123 117 119 113 114 118 119 117 115 107 104 104 105 102 102 103 108 118 127 133 137 144 145 154 156 160 167 169 176 181 154 139
45 23 48 43 45 62 62 73 103 115 110 116 128 118 122 118 120 118 113 111 106 104 101 98 96 97 100 102 114 129 129 124 120 137 145 145 161 171 169 170 165 159 143 133
31 55 55 57 65 69 72 82 85 92 105 107 107 115 114 109 109 110 109 104 98 89 90 96 97 102 110 130 136 134 138 130 129 132 129 131 136 156 163 160 152 146 136 122
79 57 62 62 63 77 77 83 87 83 90 107 111 113 115 111 111 114 110 104 94 88 80 71 76 77 85 123 163 169 152 134 124 129 129 126 131 134 133 141 137 124 115 106
86 88 92 85 77 84 89 89 88 88 91 96 111 115 119 122 121 120 121 128 138 159 163 75 28 45 62 107 152 157 153 146 146 139 137 138 135 135 132 132 136 126 115 109
101 107 97 91 93 96 97 96 96 95 99 104 112 117 123 130 132 140 148 169 198 230 249 275 317 6 40 126 154 155 158 154 156 150 152 153 150 148 146 145 139 134 129 119
120 104 99 92 91 88 89 94 97 98 104 108 113 132 156 169 171 174 185 202 225 242 242 233 239 249 262 179 157 161 159 153 152 155 154 156 166 166 156 162 154 138 134 122
118 112 106 103 97 89 79 70 69 75 82 83 99 179 203 211 227 234 235 245 244 239 242 250 255 249 229 177 167 167 163 163 161 158 148 151 147 136 125 131 137 139 133 127
121 116 109 94 72 62 54 37 21 6 352 338 317 297 276 261 257 253 256 253 253 247 242 241 233 212 185 170 172 172 164 158 160 162 160 147 146 141 140 140 145 146 147 148
113 109 107 103 76 35 10 359 350 350 358 357 356 348 336 328 320 290 257 236 219 225 221 240 219 184 168 172 171 168 168 169 169 168 164 165 177 171 169 169 160 155 154 156
130 131 115 53 31 9 3 359 1 3 2 353 349 354 359 354 337 339 332 304 205 238 217 236 185 169 175 176 179 176 174 173 182 188 177 173 162 156 157 164 170 177 177 170
145 144 131 7 357 1 358 4 19 15 9 3 349 347 351 345 1 8 343 275 222 255 230 219 178 176 178 182 185 181 174 172 159 166 162 168 174 174 176 183 184 183 189 196
153 168 314 328 343 348 352 2 27 14 -0 346 348 4 13 13 327 312 328 266 225 219 186 176 181 180 182 184 176 171 172 176 173 173 172 175 178 179 184 187 192 202 205 207
143 154 308 309 305 343 5 17 0 357 354 340 354 2 350 347 359 355 306 114 144 159 176 195 193 190 177 171 164 156 157 163 166 171 172 181 186 193 197 204 205 205 206 201
198 181 257 262 280 342 272 242 252 316 342 354 26 29 49 58 76 88 89 91 105 136 154 154 147 158 151 153 154 165 166 167 168 172 182 190 193 197 202 209 215 203 191 182
210 299 307 349 331 314 270 264 257 300 345 42 87 90 89 88 89 95 112 109 130 143 143 146 149 155 155 155 159 161 165 172 186 184 184 192 202 212 209 195 184 170 172 168
216 243 252 265 251 231 251 238 238 228 346 352 117 100 96 98 97 96 110 122 126 136 146 152 148 149 155 160 166 178 186 183 173 184 193 201 204 206 202 202 192 171 164 158
Wind_Speed_850mb
10 23 31 34 35 30 20 24 14 13 25 16 7 9 9 42 46 57 44 37 66 76 80 81 87 90 88 100 100 93 84 83 78 77 72 66 67 60 53 44 36 29 26 18
12 26 17 19 27 34 32 34 28 24 32 11 11 3 11 15 25 64 35 24 49 68 83 93 96 93 103 109 104 96 90 84 87 81 71 66 59 51 45 37 30 24 17 14
11 17 27 10 1 26 21 28 38 18 18 8 8 6 4 22 28 57 59 49 54 64 79 75 92 104 111 108 101 97 96 94 84 74 68 60 53 44 35 29 22 16 11 4
11 13 6 11 26 28 29 18 19 11 11 18 15 28 40 39 60 62 58 70 74 76 70 70 88 104 104 104 102 99 95 87 77 68 61 51 41 34 28 22 16 11 7 5
5 4 16 11 18 20 17 11 18 16 23 27 44 52 36 51 68 75 80 73 77 81 78 73 92 98 108 105 101 94 86 78 67 61 52 41 33 27 23 17 16 13 12 11
2 5 7 8 43 54 25 1 29 15 24 26 29 18 6 38 65 76 78 90 92 91 91 93 96 92 106 100 93 85 73 65 53 45 37 31 25 23 20 15 14 15 16 14
6 7 10 23 50 44 3 8 39 27 19 23 19 25 36 59 66 72 79 84 85 82 78 82 90 88 99 90 81 70 61 52 42 33 29 25 23 21 19 19 21 20 16 17
4 4 8 44 31 9 12 46 28 12 56 60 62 55 64 68 69 70 76 77 81 83 84 82 73 65 80 75 62 54 50 45 39 32 26 23 21 25 25 25 22 20 16 14
6 4 22 33 24 39 41 44 9 61 61 71 68 64 70 69 70 71 77 80 79 79 73 64 63 59 64 56 49 46 43 39 32 28 26 28 33 37 34 28 23 21 13 12
4 10 19 38 42 45 36 42 53 72 71 72 72 72 72 73 71 74 80 81 77 80 77 71 59 55 53 44 40 35 33 30 26 24 30 33 31 29 27 27 24 20 12 12
5 11 3 43 45 46 48 51 63 63 75 76 80 67 74 72 71 74 71 64 61 58 62 57 48 44 34 29 24 25 24 22 22 24 26 31 32 31 26 26 20 12 11 8
10 28 17 32 46 51 71 61 61 70 62 66 78 73 74 69 66 63 57 53 52 50 48 43 34 30 24 18 13 15 21 23 21 23 26 23 23 32 31 26 22 19 17 13
16 40 50 55 61 70 75 76 76 73 77 79 73 75 70 65 56 56 51 46 41 36 32 27 26 24 21 14 7 7 13 19 23 22 28 29 27 23 28 29 28 25 21 18
23 24 51 56 56 63 75 80 82 81 79 79 72 65 60 56 51 45 41 34 23 15 12 11 11 15 13 10 12 10 10 17 18 30 27 24 22 26 27 31 36 37 31 30
17 29 36 34 47 59 60 63 69 65 60 62 54 50 47 50 45 39 31 25 18 6 4 2 8 11 12 9 17 21 23 27 26 26 25 24 24 26 29 33 36 36 38 39
27 39 41 49 50 47 46 49 52 46 41 37 36 34 33 33 31 27 22 15 11 11 9 6 4 3 5 6 23 36 33 32 27 23 24 23 22 23 25 31 34 31 30 31
43 35 38 39 35 35 36 33 33 31 27 27 26 19 15 14 15 16 15 15 15 13 12 11 11 8 7 13 31 30 29 28 27 20 19 17 18 21 23 21 31 29 31 27
32 31 27 25 22 21 21 19 17 13 12 10 4 4 10 15 16 16 17 20 21 21 22 22 21 17 15 21 30 33 31 29 31 28 23 21 24 38 33 37 39 33 33 28
33 31 22 16 13 14 15 16 15 14 12 8 6 7 9 13 17 20 21 20 20 19 20 20 23 23 26 31 33 40 40 40 34 29 26 32 34 36 36 36 34 27 21 19
25 19 15 14 11 13 19 20 22 19 15 14 13 10 10 11 13 11 12 13 14 10 11 11 16 23 37 38 39 47 45 40 37 37 35 33 28 32 35 28 30 23 16 17
23 17 10 7 11 17 22 22 16 12 15 15 13 12 13 12 13 12 4 2 8 6 13 12 13 29 39 41 45 49 43 36 35 34 35 37 44 43 44 40 29 20 17 19
22 13 5 3 10 18 25 19 18 19 21 18 13 12 13 12 11 9 6 6 7 8 10 13 25 31 38 42 41 45 39 38 38 38 39 47 45 43 38 31 25 22 17 14
17 5 5 10 15 18 24 15 14 16 22 24 16 13 12 13 8 4 8 5 7 8 13 21 25 32 35 36 39 37 37 37 41 43 42 39 39 35 30 28 23 20 18 16
9 5 1 6 6 6 13 4 6 14 22 19 11 10 10 10 6 1 5 7 15 12 12 16 21 25 32 42 45 45 41 45 46 44 42 35 35 30 27 23 20 19 18 16
4 3 2 4 4 3 1 3 4 7 17 8 5 4 5 8 10 13 14 12 10 9 12 17 19 27 33 41 43 45 43 45 46 40 35 35 31 26 21 19 16 15 14 14
6 2 4 10 9 5 4 5 7 2 13 6 7 9 10 11 10 8 6 8 7 10 18 24 27 34 41 47 49 48 47 45 38 33 35 31 26 20 17 17 15 14 13 13
15 14 8 5 5 6 8 11 9 4 7 6 4 8 10 11 11 12 15 17 15 17 20 23 28 30 31 31 32 34 33 31 27 26 25 24 23 21 20 17 13 14 14 12
Wind_Direction_850mb
263 269 269 270 273 268 221 233 246 238 229 261 227 268 343 333 313 288 268 129 130 129 133 138 141 150 153 158 164 165 165 166 166 164 165 170 163 166 171 173 172 181 196 206
268 271 272 276 275 270 242 230 241 250 275 216 198 192 60 352 258 258 107 88 114 126 126 136 144 145 144 149 153 158 160 160 157 156 159 161 166 165 169 168 174 187 205 238
273 316 306 293 84 312 291 219 216 211 228 134 224 62 170 140 80 61 64 77 99 113 122 130 139 142 147 149 151 152 152 150 151 154 155 157 156 161 166 174 182 198 216 251
283 327 328 1 26 329 316 212 192 244 98 105 85 61 59 97 94 86 90 84 97 106 116 124 128 139 139 141 143 144 145 146 149 151 150 151 156 165 172 174 176 168 140 79
273 291 283 303 22 344 342 327 301 120 114 113 95 74 43 84 102 106 102 107 109 117 118 114 121 129 137 136 139 139 140 140 141 146 148 153 160 163 158 156 147 131 107 100
264 306 305 354 332 326 305 68 19 32 132 134 122 89 54 78 93 104 109 116 116 124 131 129 122 131 134 132 133 132 133 135 137 141 148 153 153 151 145 142 135 121 123 119
225 242 270 359 324 316 53 314 326 330 139 90 84 98 97 101 102 108 112 119 124 123 129 136 132 126 126 127 125 129 133 134 137 140 144 147 149 150 151 151 145 136 133 120
312 307 316 344 338 40 328 302 295 100 109 104 104 103 100 99 106 115 112 119 120 117 115 121 129 124 113 115 122 129 131 131 131 133 139 146 154 149 148 146 149 145 139 118
25 358 307 327 316 312 310 275 141 115 122 121 115 106 101 98 101 107 114 116 120 123 120 119 121 115 109 112 117 120 122 123 129 133 137 148 154 150 147 146 144 142 141 99
298 358 330 359 3 6 10 123 129 131 127 122 114 115 112 114 109 103 111 116 117 116 113 109 108 103 100 102 105 114 119 122 126 137 144 148 152 151 150 155 165 160 132 102
303 340 296 21 22 32 60 112 124 125 133 125 123 117 119 113 114 118 119 117 115 107 104 104 105 102 102 103 108 118 127 133 137 144 145 154 156 160 167 169 176 181 154 139
45 23 48 43 45 62 62 73 103 115 110 116 128 118 122 118 120 118 113 111 106 104 101 98 96 97 100 102 114 129 129 124 120 137 145 145 161 171 169 170 165 159 143 133
31 55 55 57 65 69 72 82 85 92 105 107 107 115 114 109 109 110 109 104 98 89 90 96 97 102 110 130 136 134 138 130 129 132 129 131 136 156 163 160 152 146 136 122
79 57 62 62 63 77 77 83 87 83 90 107 111 113 115 111 111 114 110 104 94 88 80 71 76 77 85 123 163 169 152 134 124 129 129 126 131 134 133 141 137 124 115 106
86 88 92 85 77 84 89 89 88 88 91 96 111 115 119 122 121 120 121 128 138 159 163 75 28 45 62 107 152 157 153 146 146 139 137 138 135 135 132 132 136 126 115 109
101 107 97 91 93 96 97 96 96 95 99 104 112 117 123 130 132 140 148 169 198 230 249 275 317 6 40 126 154 155 158 154 156 150 152 153 150 148 146 145 139 134 129 119
120 104 99 92 91 88 89 94 97 98 104 108 113 132 156 169 171 174 185 202 225 242 242 233 239 249 262 179 157 161 159 153 152 155 154 156 166 166 156 162 154 138 134 122
118 112 106 103 97 89 79 70 69 75 82 83 99 179 203 211 227 234 235 245 244 239 242 250 255 249 229 177 167 167 163 163 161 158 148 151 147 136 125 131 137 139 133 127
121 116 109 94 72 62 54 37 21 6 352 338 317 297 276 261 257 253 256 253 253 247 242 241 233 212 185 170 172 172 164 158 160 162 160 147 146 141 140 140 145 146 147 148
113 109 107 103 76 35 10 359 350 350 358 357 356 348 336 328 320 290 257 236 219 225 221 240 219 184 168 172 171 168 168 169 169 168 164 165 177 171 169 169 160 155 154 156
130 131 115 53 31 9 3 359 1 3 2 353 349 354 359 354 337 339 332 304 205 238 217 236 185 169 175 176 179 176 174 173 182 188 177 173 162 156 157 164 170 177 177 170
145 144 131 7 357 1 358 4 19 15 9 3 349 347 351 345 1 8 343 275 222 255 230 219 178 176 178 182 185 181 174 172 159 166 162 168 174 174 176 183 184 183 189 196
153 168 314 328 343 348 352 2 27 14 -0 346 348 4 13 13 327 312 328 266 225 219 186 176 181 180 182 184 176 171 172 176 173 173 172 175 178 179 184 187 192 202 205 207
143 154 308 309 305 343 5 17 0 357 354 340 354 2 350 347 359 355 306 114 144 159 176 195 193 190 177 171 164 156 157 163 166 171 172 181 186 193 197 204 205 205 206 201
198 181 257 262 280 342 272 242 252 316 342 354 26 29 49 58 76 88 89 91 105 136 154 154 147 158 151 153 154 165 166 167 168 172 182 190 193 197 202 209 215 203 191 182
210 299 307 349 331 314 270 264 257 300 345 42 87 90 89 88 89 95 112 109 130 143 143 146 149 155 155 155 159 161 165 172 186 184 184 192 202 212 209 195 184 170 172 168
216 243 252 265 251 231 251 238 238 228 346 352 117 100 96 98 97 96 110 122 126 136 146 152 148 149 155 160 166 178 186 183 173 184 193 201 204 206 202 202 192 171 164 158